[[{"header":{"parameterUnit":"m.s-1","parameterCategory":2,"la1":30.2991,"la2":30.254,"lo1":-89.0895,"lo2":-89.0444,"dy":0.0017,"dx":0.0017,"nx":28,"ny":28,"refTime":"2025-11-28T03:00:00:Z","depth":"0","parameterNumber":2,"parameterNumberName":"U-component_of_CURRENTS"},"data":[0,0,0,0,0,0,0,0,0,0,0,0,0,0,0,0,0,0,0,0,0,0,0,0,0,0,0,0,0,0,0,0,0,0,0,0,0,0,0,0,0,0,0,0,0,0,0,0,0,0,0,0,0,0,0,0,0,0,0.1272,0.1272,0,0.128,0.128,0.128,0.127,0.127,0.1269,0.1269,0.1266,0.1266,0.1266,0,0,0,0,0,0,0,0,0,0,0,0,0,0.1253,0.1253,0.1272,0.1272,0.1273,0.128,0.128,0.128,0.127,0.127,0.1269,0.1269,0.1266,0.1266,0.1266,0,0,0,0,0,0,0,0,0,0,0,0,0,0.126,0.1253,0.1272,0.1269,0.1269,0.128,0.128,0.128,0.127,0.127,0.1269,0.1269,0.1266,0.1266,0.1266,0.1275,0,0,0.1267,0.1267,0,0,0,0,0,0,0,0,0.126,0.1261,0.127,0.127,0.127,0.1275,0.1273,0.1279,0.127,0.1268,0.1269,0.1269,0.1269,0.1269,0.127,0.1275,0.1275,0.1267,0.1267,0.1267,0.1267,0,0,0,0,0,0,0,0.1259,0.126,0.1274,0.127,0.127,0.127,0.127,0.1274,0.1269,0.1268,0.1268,0.1271,0.1269,0.127,0.127,0.1275,0.1267,0.1267,0.1268,0.1268,0.1304,0.1305,0,0,0,0,0,0,0.1261,0.126,0.1274,0.1274,0.1265,0.1271,0.1271,0.1272,0.127,0.1269,0.1272,0.1271,0.1269,0.1269,0.1269,0.1295,0.1267,0.1268,0.1268,0.1303,0.1304,0.1305,0,0,0,0,0,0,0.1261,0.1262,0.1273,0.1268,0.127,0.1271,0.1273,0.1273,0.1276,0.1273,0.1272,0.1276,0.1269,0.1269,0.1278,0.1295,0.1268,0.1268,0.1302,0.1303,0.1304,0.1337,0,0,0,0,0,0,0.126,0.1262,0.1266,0.1269,0.127,0.1286,0.1274,0.1273,0.1279,0.1278,0.1276,0.1275,0.1269,0.1277,0.1278,0.1294,0.1268,0.1301,0.1303,0.1304,0.1335,0.134,0.1343,0,0,0,0,0,0.1259,0.1269,0.1266,0.1268,0.1275,0.1287,0.1288,0.1287,0.128,0.1287,0.1284,0.1275,0.1288,0.1278,0.1279,0.1296,0.13,0.1302,0.1304,0.1333,0.1339,0.1343,0,0,0,0,0,0,0.1265,0.1269,0.1266,0.1277,0.1284,0.1286,0.1294,0.1291,0.1294,0.1293,0.1284,0.1283,0.1298,0.1293,0.1283,0.1311,0.1294,0.1296,0.1316,0.1321,0.1325,0.1329,0.1268,0,0,0,0,0,0.1268,0.1273,0.1279,0.1287,0.1292,0.1293,0.1298,0.1298,0.13,0.1301,0.1298,0.1299,0.1307,0.131,0.1314,0.1328,0.1328,0.134,0.1344,0.1348,0.1352,0.1368,0.1374,0.1311,0.1311,0.1311,0,0,0.1271,0.1275,0.1277,0.1289,0.1292,0.1305,0.1295,0.1307,0.1317,0.1301,0.1313,0.1313,0.1314,0.133,0.1337,0.1328,0.1366,0.135,0.1353,0.1355,0.1371,0.1377,0.1382,0.1312,0.1312,0.1312,0,0,0.1281,0.1285,0.1293,0.1302,0.1313,0.1318,0.1323,0.1329,0.1332,0.1344,0.1338,0.1349,0.1354,0.1362,0.1366,0.1396,0.1388,0.1397,0.142,0.1436,0.1441,0.1446,0.1457,0.1462,0.1398,0.1399,0.1399,0,0.1285,0.1295,0.1299,0.1311,0.1321,0.1325,0.1338,0.1347,0.1354,0.1362,0.1352,0.1371,0.1371,0.1398,0.1408,0.1405,0.1409,0.1401,0.1441,0.1446,0.145,0.146,0.1465,0.14,0.14,0.14,0.14,0,0.13,0.1311,0.1319,0.1334,0.1346,0.136,0.1374,0.1386,0.1389,0.1395,0.1417,0.1418,0.1429,0.1435,0.143,0.1463,0.1455,0.1445,0.1428,0.1458,0.1467,0.1472,0.1403,0.1402,0.1402,0.1401,0,0,0.1298,0.1323,0.1325,0.1334,0.1359,0.1368,0.1395,0.1418,0.1434,0.1444,0.1464,0.1482,0.148,0.1485,0.1483,0.1498,0.1531,0.1485,0.1485,0.1494,0.1565,0.157,0.1576,0.1527,0.1528,0.1529,0.1559,0,0.1307,0.133,0.1344,0.1366,0.1378,0.1397,0.142,0.1443,0.1459,0.148,0.1493,0.151,0.1501,0.1506,0.1523,0.153,0.1545,0.1524,0.1535,0.1536,0.1536,0.1582,0.1562,0.1588,0.1564,0.1565,0.1566,0,0.1314,0.1329,0.135,0.1378,0.1385,0.1402,0.1437,0.1459,0.1497,0.1509,0.1533,0.154,0.1572,0.1552,0.1587,0.1573,0.1574,0.1576,0.1577,0.1573,0.1551,0.1554,0.1598,0.1585,0.1573,0.1573,0.1572,0,0.1301,0.1331,0.1347,0.1356,0.1391,0.1406,0.1428,0.1466,0.1489,0.1528,0.1547,0.1578,0.1598,0.1609,0.1622,0.1605,0.1656,0.163,0.1635,0.1635,0.1616,0.1613,0.1648,0.1653,0.1653,0.1653,0.1653,0,0.1299,0.131,0.134,0.1347,0.1368,0.1397,0.1425,0.1452,0.1497,0.1532,0.1559,0.1595,0.1614,0.1646,0.1642,0.1667,0.1675,0.1653,0.165,0.1627,0.1625,0.161,0.1597,0.1654,0.1654,0.1654,0.1653,0,0.1276,0.1298,0.1314,0.1349,0.136,0.1373,0.1419,0.1444,0.1488,0.1537,0.1552,0.1617,0.1664,0.1682,0.1709,0.1699,0.1683,0.1713,0.1686,0.168,0.1662,0.1651,0.1625,0.1567,0.1722,0.1722,0.1722,0,0.1262,0.127,0.1304,0.1317,0.1331,0.1357,0.138,0.1429,0.1466,0.1553,0.1583,0.1648,0.1702,0.1752,0.1755,0.1763,0.1705,0.1731,0.1694,0.1676,0.1661,0.1599,0.1545,0.1681,0.1681,0.1681,0.1681,0,0.1237,0.1251,0.1267,0.1294,0.1316,0.1341,0.1385,0.1412,0.1483,0.1534,0.1619,0.167,0.1743,0.1763,0.178,0.1772,0.1679,0.173,0.172,0.1649,0.1574,0.1511,0.1641,0.168,0.168,0.168,0.168,0.168,0.1214,0.122,0.1248,0.1273,0.1296,0.1328,0.1343,0.1405,0.1461,0.1547,0.1616,0.1695,0.1752,0.1787,0.1762,0.1734,0.1689,0.1691,0.1684,0.1625,0.1557,0.1691,0.1721,0.1722,0.1722,0.1722,0.1722,0,0.1188,0.1207,0.1228,0.1257,0.1274,0.1298,0.1348,0.1367,0.1426,0.1532,0.1604,0.1703,0.1736,0.1755,0.1761,0.1706,0.1609,0.166,0.157,0.1519,0.1659,0.1647,0.1652,0.1652,0.1652,0.1652,0.1652,0.1652,0.1176,0.1191,0.121,0.1231,0.125,0.1266,0.1287,0.1322,0.139,0.1486,0.1568,0.1637,0.1757,0.1839,0.1794,0.1732,0.1577,0.1541,0.1492,0.1616,0.1618,0.1619,0.1606,0.1603,0.1602,0.1301,0.1299,0.1298]},{"header":{"parameterUnit":"m.s-1","parameterCategory":2,"la1":30.2991,"la2":30.254,"lo1":-89.0895,"lo2":-89.0444,"dy":0.0017,"dx":0.0017,"nx":28,"ny":28,"refTime":"2025-11-28T03:00:00:Z","depth":"0","parameterNumber":3,"parameterNumberName":"V-component_of_CURRENTS"},"data":[0,0,0,0,0,0,0,0,0,0,0,0,0,0,0,0,0,0,0,0,0,0,0,0,0,0,0,0,0,0,0,0,0,0,0,0,0,0,0,0,0,0,0,0,0,0,0,0,0,0,0,0,0,0,0,0,0,0,-0.036,-0.0361,0,-0.038,-0.038,-0.038,-0.0392,-0.0392,-0.0392,-0.0392,-0.0407,-0.0407,-0.0408,0,0,0,0,0,0,0,0,0,0,0,0,0,-0.0347,-0.0347,-0.036,-0.0361,-0.0361,-0.038,-0.038,-0.038,-0.0392,-0.0392,-0.0392,-0.0393,-0.0407,-0.0407,-0.0408,0,0,0,0,0,0,0,0,0,0,0,0,0,-0.0357,-0.0347,-0.036,-0.037,-0.0371,-0.038,-0.038,-0.038,-0.0392,-0.0392,-0.0392,-0.0393,-0.0407,-0.0407,-0.0408,-0.0406,0,0,-0.0409,-0.0409,0,0,0,0,0,0,0,0,-0.0357,-0.0358,-0.0368,-0.0369,-0.0371,-0.0385,-0.0381,-0.0389,-0.0392,-0.0383,-0.0392,-0.0393,-0.04,-0.0401,-0.0402,-0.0406,-0.0407,-0.0409,-0.0409,-0.0409,-0.0409,0,0,0,0,0,0,0,-0.0356,-0.0357,-0.0367,-0.0368,-0.037,-0.0378,-0.038,-0.0383,-0.0389,-0.0384,-0.0385,-0.0389,-0.04,-0.0402,-0.0403,-0.0407,-0.0409,-0.0409,-0.0409,-0.041,-0.0415,-0.0414,0,0,0,0,0,0,-0.0355,-0.0356,-0.0367,-0.0368,-0.0365,-0.0378,-0.038,-0.0379,-0.0389,-0.0391,-0.0388,-0.0389,-0.0401,-0.0402,-0.0403,-0.0398,-0.0409,-0.041,-0.041,-0.0415,-0.0415,-0.0414,0,0,0,0,0,0,-0.0354,-0.0355,-0.0366,-0.0364,-0.0366,-0.0378,-0.0377,-0.0379,-0.0383,-0.0393,-0.0395,-0.039,-0.0402,-0.0403,-0.0405,-0.0399,-0.041,-0.041,-0.0415,-0.0415,-0.0414,-0.0389,0,0,0,0,0,0,-0.0354,-0.0355,-0.0353,-0.0363,-0.0366,-0.0367,-0.0377,-0.038,-0.0386,-0.0387,-0.0395,-0.0397,-0.0402,-0.0405,-0.0406,-0.0399,-0.041,-0.0415,-0.0415,-0.0415,-0.039,-0.0388,-0.0386,0,0,0,0,0,-0.0353,-0.0346,-0.0353,-0.0354,-0.0363,-0.0367,-0.0369,-0.0378,-0.0385,-0.0383,-0.0391,-0.0397,-0.0404,-0.0405,-0.0406,-0.04,-0.0415,-0.0415,-0.0415,-0.0391,-0.0388,-0.0386,0,0,0,0,0,0,-0.0337,-0.0347,-0.0355,-0.0351,-0.0358,-0.0369,-0.0368,-0.0378,-0.0382,-0.0383,-0.0394,-0.0396,-0.0396,-0.0403,-0.0403,-0.0401,-0.0411,-0.0411,-0.0392,-0.039,-0.0388,-0.0378,-0.0411,0,0,0,0,0,-0.0334,-0.0332,-0.0345,-0.0341,-0.0345,-0.0358,-0.0361,-0.0368,-0.0375,-0.0377,-0.0384,-0.0392,-0.0396,-0.0397,-0.0402,-0.0399,-0.0406,-0.0397,-0.0395,-0.0393,-0.0387,-0.0394,-0.0392,-0.0414,-0.0414,-0.0414,0,0,-0.0328,-0.0333,-0.0332,-0.0338,-0.0345,-0.0341,-0.036,-0.0362,-0.0358,-0.0378,-0.0373,-0.0386,-0.0395,-0.0392,-0.0393,-0.0396,-0.0391,-0.0393,-0.0392,-0.0386,-0.0394,-0.0392,-0.039,-0.0414,-0.0414,-0.0414,0,0,-0.0309,-0.0317,-0.0309,-0.0313,-0.0322,-0.033,-0.033,-0.0341,-0.0345,-0.0346,-0.0359,-0.0368,-0.0373,-0.0378,-0.0382,-0.0373,-0.0383,-0.0376,-0.0355,-0.0363,-0.0361,-0.036,-0.0366,-0.0365,-0.0373,-0.0373,-0.0373,0,-0.0299,-0.029,-0.0307,-0.0299,-0.0298,-0.0322,-0.0311,-0.0318,-0.0328,-0.0327,-0.034,-0.0353,-0.0366,-0.0361,-0.036,-0.0368,-0.0373,-0.0362,-0.036,-0.0359,-0.0357,-0.0364,-0.0364,-0.0372,-0.0372,-0.0372,-0.0372,0,-0.0274,-0.0268,-0.0263,-0.0261,-0.0263,-0.0257,-0.027,-0.0271,-0.0284,-0.0293,-0.0297,-0.0318,-0.0325,-0.0333,-0.0344,-0.034,-0.0347,-0.0358,-0.0364,-0.0354,-0.0362,-0.0362,-0.037,-0.037,-0.0371,-0.0371,0,0,-0.0244,-0.0244,-0.0241,-0.0232,-0.0241,-0.0236,-0.0231,-0.0231,-0.0223,-0.0245,-0.0236,-0.0259,-0.0278,-0.0284,-0.0303,-0.0312,-0.0315,-0.0329,-0.033,-0.0331,-0.0329,-0.0345,-0.0347,-0.0325,-0.0325,-0.0324,-0.0338,0,-0.0216,-0.0192,-0.0201,-0.0176,-0.0164,-0.0181,-0.0172,-0.0177,-0.0189,-0.0188,-0.0219,-0.0223,-0.0257,-0.0262,-0.0277,-0.0303,-0.0313,-0.031,-0.0341,-0.0342,-0.0355,-0.0347,-0.0362,-0.0376,-0.0338,-0.0338,-0.0338,0,-0.0183,-0.0171,-0.0142,-0.0128,-0.0123,-0.0115,-0.0102,-0.0099,-0.0112,-0.0122,-0.014,-0.0166,-0.0185,-0.0218,-0.0258,-0.0254,-0.0287,-0.0313,-0.0314,-0.0337,-0.0359,-0.0381,-0.0378,-0.0498,-0.0338,-0.0338,-0.0338,0,-0.0144,-0.0126,-0.0099,-0.0095,-0.0087,-0.0075,-0.0073,-0.0078,-0.0068,-0.0083,-0.0078,-0.0114,-0.0124,-0.0172,-0.0234,-0.0243,-0.0278,-0.0297,-0.0344,-0.0346,-0.0368,-0.0372,-0.0481,-0.0324,-0.0324,-0.0324,-0.0324,0,-0.0106,-0.0082,-0.008,-0.0064,-0.0029,-0.0041,-0.001,-0.0014,-0.0014,0.0006,-0.0043,-0.0033,-0.0112,-0.0146,-0.0211,-0.0275,-0.0262,-0.0336,-0.0349,-0.036,-0.0363,-0.0476,-0.0541,-0.0324,-0.0324,-0.0324,-0.0324,0,-0.0064,-0.0064,-0.0032,-0.0018,-0.001,0.0013,0.0032,0.0053,0.0043,0.0069,0.0067,0.0034,-0.0012,-0.0094,-0.0168,-0.0237,-0.0372,-0.033,-0.0338,-0.0352,-0.0511,-0.0574,-0.0683,-0.0732,-0.0381,-0.0381,-0.0382,0,-0.0039,-0.0019,0.0006,0.0029,0.0037,0.0064,0.0088,0.0084,0.0108,0.0115,0.0138,0.0099,0.0084,-0.0038,-0.0166,-0.0281,-0.0387,-0.0377,-0.0401,-0.0521,-0.06,-0.0645,-0.0681,-0.0421,-0.0422,-0.0423,-0.0423,0,0.001,0.0015,0.004,0.0082,0.0111,0.0143,0.0174,0.0204,0.0207,0.0228,0.025,0.0236,0.0115,-0.0007,-0.0175,-0.0267,-0.0475,-0.0392,-0.0515,-0.064,-0.0696,-0.0748,-0.0413,-0.0428,-0.0428,-0.0427,-0.0427,-0.0427,0.0048,0.0071,0.0098,0.0138,0.0173,0.0216,0.0249,0.0285,0.0327,0.0357,0.0339,0.0324,0.0126,-0.0103,-0.024,-0.0525,-0.0513,-0.0615,-0.0678,-0.071,-0.0771,-0.0446,-0.0477,-0.0477,-0.0477,-0.0477,-0.0477,0,0.0091,0.0111,0.0153,0.0194,0.0234,0.0242,0.0304,0.0338,0.0394,0.0411,0.042,0.029,0.0051,-0.0203,-0.0569,-0.077,-0.0844,-0.0896,-0.0975,-0.0995,-0.0707,-0.0723,-0.081,-0.081,-0.081,-0.081,-0.081,-0.081,0.0115,0.0156,0.0169,0.0233,0.0264,0.0316,0.0351,0.0408,0.0437,0.0436,0.0397,0.0345,0.0067,-0.0524,-0.0988,-0.1084,-0.1233,-0.1265,-0.1333,-0.1158,-0.1137,-0.1117,-0.1148,-0.1324,-0.1324,-0.1595,-0.1598,-0.16]}],[{"header":{"parameterUnit":"m.s-1","parameterCategory":2,"la1":30.2991,"la2":30.254,"lo1":-89.0895,"lo2":-89.0444,"dy":0.0017,"dx":0.0017,"nx":28,"ny":28,"refTime":"2025-11-28T03:00:00:Z","depth":"2","parameterNumber":2,"parameterNumberName":"U-component_of_CURRENTS"},"data":[0,0,0,0,0,0,0,0,0,0,0,0,0,0,0,0,0,0,0,0,0,0,0,0,0,0,0,0,0,0,0,0,0,0,0,0,0,0,0,0,0,0,0,0,0,0,0,0,0,0,0,0,0,0,0,0,0,0,0.123,0.1231,0,0.1239,0.1239,0.1238,0.123,0.123,0.1229,0.1229,0.1229,0.1229,0.1229,0,0,0,0,0,0,0,0,0,0,0,0,0,0.1211,0.1211,0.123,0.1231,0.1231,0.1239,0.1239,0.1238,0.123,0.123,0.1229,0.1229,0.1228,0.1229,0.1229,0,0,0,0,0,0,0,0,0,0,0,0,0,0.1218,0.1211,0.123,0.1229,0.1229,0.1239,0.1239,0.1238,0.123,0.123,0.1229,0.1229,0.1228,0.1229,0.1229,0.1236,0,0,0.123,0.123,0,0,0,0,0,0,0,0,0.1217,0.1218,0.1229,0.1229,0.1229,0.1234,0.1231,0.1238,0.123,0.1228,0.1229,0.1229,0.1231,0.1231,0.1231,0.1236,0.1236,0.123,0.123,0.123,0.123,0,0,0,0,0,0,0,0.1217,0.1218,0.1232,0.1229,0.1229,0.1229,0.1229,0.1233,0.1229,0.1228,0.1228,0.1231,0.1231,0.1231,0.1231,0.1236,0.123,0.123,0.123,0.123,0.1266,0.1267,0,0,0,0,0,0,0.1219,0.1217,0.1232,0.1232,0.1224,0.123,0.123,0.1232,0.123,0.123,0.1232,0.1231,0.123,0.1231,0.1231,0.1258,0.123,0.123,0.123,0.1266,0.1267,0.1268,0,0,0,0,0,0,0.1219,0.122,0.1231,0.1226,0.1228,0.123,0.1232,0.1232,0.1237,0.1233,0.1232,0.1237,0.123,0.123,0.124,0.1257,0.123,0.123,0.1265,0.1266,0.1267,0.1301,0,0,0,0,0,0,0.1218,0.122,0.1225,0.1227,0.1228,0.1245,0.1233,0.1232,0.124,0.1239,0.1237,0.1237,0.123,0.124,0.124,0.1257,0.1231,0.1264,0.1265,0.1267,0.1299,0.1303,0.1307,0,0,0,0,0,0.1217,0.1227,0.1225,0.1227,0.1234,0.1245,0.1246,0.1246,0.124,0.1248,0.1245,0.1237,0.125,0.1241,0.1241,0.1258,0.1263,0.1265,0.1267,0.1297,0.1302,0.1307,0,0,0,0,0,0,0.1222,0.1227,0.1225,0.1235,0.1243,0.1245,0.1253,0.1251,0.1255,0.1254,0.1246,0.1245,0.1261,0.1256,0.1246,0.1274,0.1256,0.1258,0.1279,0.1284,0.1288,0.1292,0.1231,0,0,0,0,0,0.1226,0.1231,0.1237,0.1246,0.1251,0.1253,0.1258,0.1258,0.1261,0.1262,0.126,0.1261,0.1269,0.1273,0.1276,0.1291,0.129,0.1303,0.1307,0.1311,0.1315,0.133,0.1336,0.1274,0.1274,0.1274,0,0,0.1229,0.1233,0.1236,0.1247,0.1252,0.1264,0.1255,0.1267,0.1278,0.1262,0.1275,0.1276,0.1277,0.1293,0.13,0.129,0.1329,0.1313,0.1316,0.1318,0.1333,0.1339,0.1344,0.1275,0.1275,0.1274,0,0,0.1239,0.1244,0.1252,0.1261,0.1273,0.1277,0.1283,0.1289,0.1293,0.1306,0.1301,0.1312,0.1318,0.1325,0.1329,0.1359,0.1351,0.1361,0.1384,0.14,0.1405,0.1409,0.1419,0.1424,0.1362,0.1362,0.1362,0,0.1243,0.1253,0.1258,0.127,0.128,0.1285,0.1298,0.1308,0.1315,0.1323,0.1315,0.1335,0.1335,0.1361,0.1371,0.1369,0.1373,0.1364,0.1405,0.1409,0.1414,0.1422,0.1427,0.1364,0.1364,0.1364,0.1364,0,0.1258,0.1269,0.1278,0.1293,0.1305,0.1319,0.1333,0.1346,0.135,0.1357,0.1381,0.1382,0.1393,0.1399,0.1394,0.1427,0.1418,0.1408,0.1392,0.1422,0.1429,0.1434,0.1367,0.1366,0.1366,0.1365,0,0,0.1256,0.1282,0.1284,0.1293,0.1318,0.1327,0.1355,0.1378,0.1394,0.1405,0.1426,0.1445,0.1444,0.1449,0.1447,0.1462,0.1494,0.1449,0.1449,0.1457,0.1527,0.1528,0.1533,0.1491,0.1492,0.1493,0.152,0,0.1266,0.1288,0.1302,0.1324,0.1337,0.1355,0.1378,0.1401,0.1418,0.144,0.1455,0.1472,0.1464,0.147,0.1487,0.1493,0.1508,0.1487,0.1497,0.1497,0.1494,0.1539,0.1411,0.1426,0.1525,0.1526,0.1526,0,0.1273,0.1287,0.1309,0.1336,0.1344,0.1361,0.1396,0.1418,0.1456,0.1469,0.1494,0.1502,0.1533,0.1515,0.1549,0.1536,0.1536,0.1538,0.1539,0.1531,0.1508,0.1411,0.143,0.1534,0.1534,0.1533,0.1532,0,0.126,0.129,0.1305,0.1315,0.1349,0.1365,0.1387,0.1426,0.1449,0.1488,0.1508,0.1539,0.156,0.157,0.1583,0.1566,0.1615,0.159,0.1591,0.159,0.1479,0.1468,0.1612,0.1612,0.1612,0.1612,0.1612,0,0.1258,0.127,0.13,0.1307,0.1328,0.1357,0.1385,0.1413,0.1458,0.1493,0.152,0.1554,0.1575,0.1606,0.1602,0.1623,0.1633,0.1608,0.1605,0.1488,0.1478,0.1566,0.1561,0.1613,0.1613,0.1613,0.1612,0,0.1236,0.1258,0.1274,0.1309,0.1321,0.1335,0.138,0.1405,0.1449,0.1498,0.1513,0.1576,0.1621,0.1639,0.1665,0.1654,0.1665,0.1665,0.1529,0.1511,0.162,0.1616,0.1667,0.1668,0.1668,0.1668,0.1668,0,0.1223,0.1231,0.1266,0.1278,0.1293,0.1319,0.1342,0.1391,0.1427,0.1513,0.1541,0.1604,0.1652,0.1698,0.1683,0.1685,0.1692,0.1562,0.1513,0.1638,0.163,0.1625,0.162,0.1371,0.1369,0.1367,0.1366,0,0.1198,0.1213,0.1229,0.1256,0.1278,0.1303,0.1346,0.1372,0.1442,0.149,0.157,0.1615,0.1667,0.1622,0.163,0.1607,0.1553,0.1529,0.1693,0.139,0.1365,0.1355,0.1359,0.135,0.1351,0.1352,0.1353,0.1354,0.1177,0.1183,0.121,0.1235,0.1258,0.1289,0.1302,0.1358,0.141,0.1461,0.1536,0.1535,0.1546,0.1495,0.1459,0.1414,0.1517,0.1426,0.1428,0.1434,0.1407,0.1386,0.1369,0.137,0.1372,0.1373,0.1374,0,0.1149,0.1169,0.119,0.1219,0.1233,0.1261,0.1306,0.1305,0.1353,0.1378,0.142,0.1288,0.1278,0.127,0.1193,0.1212,0.1166,0.1149,0.1066,0.1085,0.1101,0.1054,0.0923,0.0921,0.092,0.0918,0,0,0.1137,0.1151,0.1168,0.1187,0.1209,0.1217,0.1235,0.1235,0.1234,0.1181,0.1137,0.1205,0.1239,0.1052,0.1048,0.097,0.101,0.093,0.1297,0.1218,0.1232,0.1274,0.1226,0,0,0,0,0]},{"header":{"parameterUnit":"m.s-1","parameterCategory":2,"la1":30.2991,"la2":30.254,"lo1":-89.0895,"lo2":-89.0444,"dy":0.0017,"dx":0.0017,"nx":28,"ny":28,"refTime":"2025-11-28T03:00:00:Z","depth":"2","parameterNumber":3,"parameterNumberName":"V-component_of_CURRENTS"},"data":[0,0,0,0,0,0,0,0,0,0,0,0,0,0,0,0,0,0,0,0,0,0,0,0,0,0,0,0,0,0,0,0,0,0,0,0,0,0,0,0,0,0,0,0,0,0,0,0,0,0,0,0,0,0,0,0,0,0,-0.0222,-0.0222,0,-0.0241,-0.0241,-0.0241,-0.0257,-0.0258,-0.0258,-0.0258,-0.0276,-0.0276,-0.0276,0,0,0,0,0,0,0,0,0,0,0,0,0,-0.0211,-0.0211,-0.0222,-0.0222,-0.0222,-0.0241,-0.0241,-0.0241,-0.0257,-0.0258,-0.0258,-0.0258,-0.0276,-0.0276,-0.0276,0,0,0,0,0,0,0,0,0,0,0,0,0,-0.022,-0.0211,-0.0222,-0.0234,-0.0235,-0.0241,-0.0241,-0.0241,-0.0257,-0.0258,-0.0258,-0.0258,-0.0276,-0.0276,-0.0276,-0.027,0,0,-0.0277,-0.0278,0,0,0,0,0,0,0,0,-0.0219,-0.022,-0.0231,-0.0233,-0.0234,-0.0248,-0.0244,-0.0251,-0.0257,-0.0248,-0.0258,-0.0259,-0.0267,-0.0268,-0.0269,-0.0271,-0.0271,-0.0277,-0.0278,-0.0278,-0.0278,0,0,0,0,0,0,0,-0.0219,-0.022,-0.0228,-0.0232,-0.0234,-0.0242,-0.0243,-0.0245,-0.0254,-0.0248,-0.025,-0.0254,-0.0268,-0.0269,-0.027,-0.0272,-0.0277,-0.0278,-0.0278,-0.0278,-0.028,-0.028,0,0,0,0,0,0,-0.0218,-0.0219,-0.0227,-0.0229,-0.0229,-0.0242,-0.0243,-0.0242,-0.0254,-0.0256,-0.0253,-0.0254,-0.0268,-0.0269,-0.027,-0.0267,-0.0278,-0.0278,-0.0278,-0.028,-0.028,-0.028,0,0,0,0,0,0,-0.0217,-0.0218,-0.0227,-0.0226,-0.0227,-0.0241,-0.024,-0.0242,-0.0249,-0.0258,-0.026,-0.0258,-0.0268,-0.027,-0.0273,-0.0267,-0.0278,-0.0278,-0.0281,-0.028,-0.028,-0.0257,0,0,0,0,0,0,-0.0217,-0.0217,-0.0217,-0.0225,-0.0227,-0.0228,-0.024,-0.0243,-0.0251,-0.0253,-0.0263,-0.0264,-0.0269,-0.0272,-0.0273,-0.0268,-0.0279,-0.0281,-0.0281,-0.028,-0.0258,-0.0256,-0.0254,0,0,0,0,0,-0.0216,-0.0209,-0.0216,-0.0218,-0.0225,-0.0228,-0.0229,-0.024,-0.0251,-0.0249,-0.0258,-0.0264,-0.0272,-0.0272,-0.0273,-0.0268,-0.0281,-0.0281,-0.028,-0.0259,-0.0256,-0.0254,0,0,0,0,0,0,-0.0201,-0.021,-0.0219,-0.0214,-0.0222,-0.0231,-0.0231,-0.0241,-0.0247,-0.025,-0.0261,-0.0263,-0.0264,-0.027,-0.0271,-0.0269,-0.0278,-0.0278,-0.0261,-0.0259,-0.0257,-0.0248,-0.0279,0,0,0,0,0,-0.0199,-0.0196,-0.0208,-0.0204,-0.0208,-0.0221,-0.0225,-0.0233,-0.024,-0.0244,-0.0251,-0.0259,-0.0263,-0.0264,-0.0268,-0.0265,-0.0272,-0.0264,-0.0262,-0.026,-0.0254,-0.0262,-0.0261,-0.0279,-0.0279,-0.0279,0,0,-0.0193,-0.0197,-0.0197,-0.0202,-0.0209,-0.0205,-0.0224,-0.0228,-0.0224,-0.0244,-0.0241,-0.0253,-0.0261,-0.0259,-0.026,-0.0263,-0.0259,-0.026,-0.0258,-0.0253,-0.0262,-0.026,-0.0258,-0.0279,-0.0279,-0.0279,0,0,-0.0175,-0.0183,-0.0175,-0.0179,-0.0189,-0.0195,-0.0197,-0.0208,-0.0213,-0.0214,-0.0228,-0.0237,-0.0242,-0.0246,-0.0249,-0.024,-0.0251,-0.0243,-0.0225,-0.0232,-0.0231,-0.0229,-0.0237,-0.0237,-0.0241,-0.0241,-0.0241,0,-0.0167,-0.0158,-0.0173,-0.0166,-0.0165,-0.0189,-0.0178,-0.0185,-0.0196,-0.0195,-0.021,-0.0222,-0.0234,-0.0229,-0.0228,-0.0235,-0.0242,-0.0231,-0.0229,-0.0228,-0.0227,-0.0236,-0.0236,-0.0239,-0.024,-0.024,-0.024,0,-0.0143,-0.0137,-0.0132,-0.013,-0.0131,-0.0126,-0.0138,-0.014,-0.0154,-0.0163,-0.0168,-0.0188,-0.0195,-0.0203,-0.0213,-0.021,-0.0218,-0.0227,-0.0233,-0.0224,-0.0234,-0.0234,-0.0238,-0.0238,-0.0239,-0.0239,0,0,-0.0116,-0.0114,-0.0112,-0.0103,-0.0111,-0.0105,-0.0101,-0.01,-0.0094,-0.0116,-0.0109,-0.013,-0.0151,-0.0156,-0.0175,-0.0184,-0.019,-0.0201,-0.0202,-0.0206,-0.0206,-0.0223,-0.0225,-0.0199,-0.0198,-0.0198,-0.0216,0,-0.009,-0.0066,-0.0073,-0.0049,-0.0037,-0.0053,-0.0043,-0.0048,-0.0061,-0.0061,-0.0091,-0.0096,-0.013,-0.0136,-0.0152,-0.0177,-0.0189,-0.0184,-0.0217,-0.0217,-0.0232,-0.0226,-0.0195,-0.0209,-0.0216,-0.0216,-0.0216,0,-0.006,-0.0048,-0.002,-0.0003,0.0001,0.0009,0.0021,0.0025,0.0012,0.0002,-0.0017,-0.0043,-0.0063,-0.0096,-0.0137,-0.0132,-0.0166,-0.0191,-0.0192,-0.0215,-0.0235,-0.022,-0.021,-0.0217,-0.0217,-0.0217,-0.0217,0,-0.0026,-0.0006,0.0019,0.0023,0.0034,0.0044,0.0048,0.0043,0.0054,0.0037,0.0041,0.0005,-0.0006,-0.0055,-0.0117,-0.0125,-0.0161,-0.0179,-0.0227,-0.0228,-0.0212,-0.0212,-0.0207,-0.0207,-0.0207,-0.0206,-0.0206,0,0.0009,0.0031,0.0035,0.005,0.0084,0.0075,0.0103,0.01,0.01,0.0121,0.0071,0.0082,0.0003,-0.0031,-0.0095,-0.016,-0.0147,-0.022,-0.0233,-0.0204,-0.0203,-0.0218,-0.0219,-0.0207,-0.0207,-0.0207,-0.0207,0,0.0045,0.0047,0.0078,0.0092,0.0101,0.0121,0.0142,0.0162,0.0152,0.0178,0.0175,0.0144,0.0097,0.0016,-0.0058,-0.0125,-0.0191,-0.0218,-0.0182,-0.019,-0.0258,-0.0257,-0.027,-0.0271,-0.0272,-0.0272,-0.0273,0,0.0067,0.0085,0.0111,0.0133,0.0141,0.0167,0.0191,0.0189,0.0214,0.0222,0.0245,0.0204,0.019,0.0068,-0.0051,-0.0164,-0.0188,-0.0222,-0.0237,-0.0253,-0.0264,-0.0262,-0.0261,-0.0205,-0.0205,-0.0205,-0.0205,0,0.0111,0.0115,0.014,0.0181,0.0209,0.0243,0.0275,0.0305,0.0311,0.0332,0.0356,0.0342,0.0227,0.0126,-0.0039,-0.0118,-0.0205,-0.0225,-0.0239,-0.0199,-0.0194,-0.0204,-0.0205,-0.0204,-0.0204,-0.0204,-0.0204,-0.0204,0.0144,0.0166,0.0194,0.0234,0.0268,0.0314,0.035,0.0391,0.0436,0.0488,0.0458,0.0452,0.0316,0.0125,-0.003,-0.0195,-0.0194,-0.0247,-0.0246,-0.0245,-0.024,-0.0237,-0.0253,-0.0253,-0.0254,-0.0254,-0.0254,0,0.0187,0.0206,0.0247,0.0291,0.0334,0.0337,0.0405,0.046,0.0526,0.0565,0.0587,0.0488,0.0349,0.018,-0.0056,-0.0209,-0.0216,-0.026,-0.0228,-0.0228,-0.0228,-0.0221,-0.023,-0.023,-0.0231,-0.0231,0,0,0.0212,0.0255,0.0269,0.0338,0.0366,0.0428,0.0467,0.056,0.0613,0.0685,0.0682,0.0648,0.0421,0.026,0.0054,-0.0089,-0.0127,-0.0119,-0.012,-0.0058,-0.0056,-0.0199,-0.0185,0,0,0,0,0]}],[{"header":{"parameterUnit":"m.s-1","parameterCategory":2,"la1":30.2991,"la2":30.254,"lo1":-89.0895,"lo2":-89.0444,"dy":0.0017,"dx":0.0017,"nx":28,"ny":28,"refTime":"2025-11-28T03:00:00:Z","depth":"4","parameterNumber":2,"parameterNumberName":"U-component_of_CURRENTS"},"data":[0,0,0,0,0,0,0,0,0,0,0,0,0,0,0,0,0,0,0,0,0,0,0,0,0,0,0,0,0,0,0,0,0,0,0,0,0,0,0,0,0,0,0,0,0,0,0,0,0,0,0,0,0,0,0,0,0,0,0.0676,0.0676,0,0.0698,0.0698,0.0698,0.0733,0.0733,0.0734,0.0735,0.0786,0.0787,0.0787,0,0,0,0,0,0,0,0,0,0,0,0,0,0.063,0.0631,0.0676,0.0676,0.0676,0.0698,0.0698,0.0698,0.0733,0.0733,0.0734,0.0735,0.0786,0.0787,0.0787,0,0,0,0,0,0,0,0,0,0,0,0,0,0.0651,0.0631,0.0676,0.0696,0.0698,0.0697,0.0698,0.0698,0.0732,0.0733,0.0734,0.0735,0.0785,0.0786,0.0788,0.0775,0,0,0.0791,0.0792,0,0,0,0,0,0,0,0,0.0649,0.0652,0.0693,0.0695,0.0697,0.0714,0.0701,0.0725,0.0732,0.0719,0.0735,0.0736,0.0764,0.0767,0.0768,0.0778,0.078,0.0791,0.0792,0.0792,0.0793,0,0,0,0,0,0,0,0.0648,0.0651,0.0684,0.0693,0.0696,0.0693,0.0697,0.0705,0.0736,0.072,0.0723,0.0725,0.0765,0.0767,0.077,0.0781,0.0791,0.0792,0.0793,0.0793,0.0856,0.0857,0,0,0,0,0,0,0.0647,0.065,0.0684,0.0685,0.0675,0.0693,0.0698,0.0707,0.0736,0.0741,0.0725,0.0727,0.0764,0.0768,0.0772,0.0826,0.0792,0.0793,0.0794,0.0855,0.0856,0.0857,0,0,0,0,0,0,0.0646,0.065,0.0683,0.0668,0.0672,0.0693,0.0703,0.0707,0.0732,0.0738,0.0744,0.0748,0.0765,0.077,0.0802,0.0826,0.0794,0.0795,0.0854,0.0855,0.0856,0.0892,0,0,0,0,0,0,0.0644,0.0649,0.0664,0.0668,0.0673,0.0701,0.0702,0.0707,0.073,0.0734,0.076,0.0764,0.0766,0.0801,0.0804,0.0827,0.0796,0.0852,0.0854,0.0856,0.0889,0.0894,0.0898,0,0,0,0,0,0.0643,0.0657,0.0664,0.0669,0.069,0.0702,0.0704,0.0721,0.0731,0.0746,0.0765,0.0765,0.0814,0.0802,0.0805,0.083,0.0851,0.0854,0.0856,0.0887,0.0893,0.0898,0,0,0,0,0,0,0.0646,0.0662,0.067,0.069,0.0704,0.0708,0.0724,0.0732,0.0758,0.0768,0.0775,0.0781,0.0819,0.0818,0.0804,0.0853,0.0833,0.0836,0.0856,0.0862,0.0866,0.0871,0.0797,0,0,0,0,0,0.0652,0.0669,0.0681,0.0698,0.0708,0.0719,0.0729,0.0741,0.0757,0.077,0.0787,0.0806,0.0824,0.084,0.0854,0.0878,0.088,0.0896,0.0901,0.0904,0.0911,0.0931,0.0938,0.0864,0.0864,0.0864,0,0,0.0657,0.0669,0.0679,0.0701,0.0713,0.0729,0.0729,0.0752,0.0771,0.0771,0.0811,0.0824,0.0835,0.0866,0.0882,0.0872,0.0928,0.0907,0.091,0.0915,0.0934,0.0942,0.0948,0.0866,0.0865,0.0865,0,0,0.067,0.069,0.0707,0.0721,0.0744,0.075,0.0762,0.078,0.08,0.0833,0.0839,0.0868,0.0896,0.0907,0.0916,0.0953,0.0951,0.096,0.0988,0.1008,0.1014,0.1019,0.1034,0.104,0.0962,0.0962,0.0962,0,0.0678,0.0701,0.0714,0.0733,0.0748,0.0762,0.0784,0.08,0.0829,0.0848,0.0856,0.0905,0.0916,0.0948,0.0964,0.0964,0.0973,0.0965,0.1014,0.1019,0.1024,0.1037,0.1044,0.0964,0.0964,0.0964,0.0963,0,0.0697,0.0723,0.0736,0.0765,0.0782,0.0805,0.0825,0.0853,0.0878,0.0893,0.0941,0.0957,0.0987,0.0995,0.0994,0.1034,0.1028,0.1016,0.0999,0.1034,0.1045,0.1052,0.0967,0.0966,0.0966,0.0965,0,0,0.07,0.0741,0.075,0.0768,0.0804,0.0817,0.0856,0.0891,0.0919,0.0955,0.0993,0.1029,0.1041,0.1051,0.1054,0.1072,0.1116,0.1064,0.1065,0.1077,0.1162,0.1089,0.1089,0.1114,0.1115,0.1116,0.1157,0,0.0716,0.0753,0.0773,0.0812,0.0832,0.086,0.0892,0.0925,0.096,0.0999,0.1025,0.1064,0.106,0.1082,0.1102,0.1114,0.1134,0.1106,0.1128,0.1129,0.1058,0.1094,0.112,0.1161,0.1163,0.1164,0.1165,0,0.0729,0.0753,0.0794,0.0836,0.0849,0.0877,0.0932,0.0962,0.1014,0.1043,0.1086,0.1104,0.1147,0.1135,0.1181,0.1165,0.1172,0.1175,0.1177,0.11,0.1067,0.1119,0.1176,0.1175,0.1174,0.1173,0.1173,0,0.0718,0.0768,0.0802,0.0817,0.0866,0.0899,0.093,0.0982,0.1014,0.1076,0.111,0.1153,0.1188,0.1206,0.1224,0.121,0.1263,0.1241,0.1181,0.1176,0.1214,0.1207,0.1273,0.1273,0.1273,0.1273,0.1273,0,0.0719,0.0749,0.0804,0.0822,0.0865,0.0902,0.0954,0.0992,0.105,0.1085,0.1135,0.1168,0.1211,0.1243,0.1244,0.1235,0.1284,0.1195,0.1184,0.1228,0.1222,0.1218,0.1211,0.1275,0.1274,0.1274,0.1274,0,0.0701,0.0739,0.0778,0.0839,0.0862,0.0895,0.0965,0.0994,0.1058,0.1109,0.1133,0.1199,0.1237,0.1265,0.1296,0.1258,0.1255,0.1239,0.1292,0.1283,0.1149,0.1144,0.1173,0.1171,0.1169,0.1168,0.1166,0,0.0693,0.0713,0.0784,0.0808,0.0842,0.0895,0.0926,0.0993,0.1022,0.1115,0.1131,0.1199,0.1231,0.1215,0.1252,0.125,0.1232,0.1223,0.1177,0.1153,0.1141,0.1139,0.1136,0.1163,0.1163,0.1162,0.1162,0,0.0674,0.0708,0.0739,0.0787,0.0828,0.0858,0.0911,0.0926,0.0998,0.1074,0.1095,0.1112,0.1152,0.1166,0.1178,0.1173,0.1222,0.1203,0.1206,0.1163,0.1142,0.1131,0.113,0.1156,0.1157,0.1157,0.1157,0,0.0661,0.0674,0.0716,0.0748,0.0795,0.0799,0.0834,0.0862,0.0897,0.0997,0.1005,0.1071,0.1139,0.1128,0.1139,0.113,0.1106,0.1059,0.1069,0.1076,0.1026,0.0984,0.0947,0,0,0,0,0,0.0637,0.0637,0.0669,0.0687,0.0729,0.0745,0.0809,0.0842,0.0921,0.0907,0.095,0.0978,0.0996,0.1035,0.1004,0.1101,0.1113,0.1061,0.1063,0.112,0.1127,0.1076,0,0,0,0,0,0,0.0618,0.0643,0.0645,0.0626,0.0623,0.0646,0.0679,0.0731,0.0729,0.082,0.0834,0.0908,0.0941,0.099,0.0978,0.099,0.097,0.1109,0.1107,0.1116,0.1122,0.1128,0.1078,0,0,0,0,0]},{"header":{"parameterUnit":"m.s-1","parameterCategory":2,"la1":30.2991,"la2":30.254,"lo1":-89.0895,"lo2":-89.0444,"dy":0.0017,"dx":0.0017,"nx":28,"ny":28,"refTime":"2025-11-28T03:00:00:Z","depth":"4","parameterNumber":3,"parameterNumberName":"V-component_of_CURRENTS"},"data":[0,0,0,0,0,0,0,0,0,0,0,0,0,0,0,0,0,0,0,0,0,0,0,0,0,0,0,0,0,0,0,0,0,0,0,0,0,0,0,0,0,0,0,0,0,0,0,0,0,0,0,0,0,0,0,0,0,0,0.0209,0.0209,0,0.0198,0.0198,0.0198,0.0174,0.0173,0.0173,0.0172,0.0154,0.0154,0.0154,0,0,0,0,0,0,0,0,0,0,0,0,0,0.0213,0.0213,0.0209,0.0209,0.0209,0.0198,0.0198,0.0198,0.0174,0.0173,0.0173,0.0172,0.0154,0.0154,0.0154,0,0,0,0,0,0,0,0,0,0,0,0,0,0.0207,0.0213,0.0209,0.0196,0.0194,0.0198,0.0198,0.0198,0.0174,0.0173,0.0173,0.0172,0.0154,0.0154,0.0153,0.0167,0,0,0.0153,0.0153,0,0,0,0,0,0,0,0,0.0208,0.0207,0.0198,0.0197,0.0195,0.0187,0.0192,0.0187,0.0174,0.0182,0.0172,0.0172,0.0165,0.0164,0.0163,0.0166,0.0166,0.0153,0.0153,0.0153,0.0153,0,0,0,0,0,0,0,0.0208,0.0207,0.0204,0.0198,0.0196,0.0191,0.019,0.0191,0.0177,0.0181,0.0179,0.0178,0.0164,0.0163,0.0162,0.0165,0.0153,0.0153,0.0153,0.0153,0.0155,0.0155,0,0,0,0,0,0,0.021,0.0208,0.0205,0.0204,0.02,0.0192,0.019,0.019,0.0177,0.0175,0.0179,0.0177,0.0164,0.0162,0.0162,0.0161,0.0153,0.0153,0.0153,0.0155,0.0155,0.0155,0,0,0,0,0,0,0.021,0.021,0.0205,0.0206,0.0205,0.0193,0.0193,0.019,0.0185,0.0176,0.0173,0.0175,0.0163,0.0162,0.016,0.0161,0.0153,0.0153,0.0155,0.0155,0.0155,0.0171,0,0,0,0,0,0,0.0211,0.021,0.0211,0.0206,0.0205,0.0205,0.0193,0.019,0.0186,0.0183,0.0172,0.017,0.0162,0.016,0.016,0.0161,0.0153,0.0155,0.0155,0.0155,0.017,0.0172,0.0173,0,0,0,0,0,0.0211,0.0216,0.0211,0.021,0.0206,0.0205,0.0204,0.0193,0.0186,0.0185,0.0178,0.017,0.0161,0.016,0.016,0.0161,0.0155,0.0155,0.0155,0.017,0.0171,0.0173,0,0,0,0,0,0,0.0219,0.0214,0.0208,0.0212,0.0207,0.0201,0.0201,0.0194,0.0188,0.0185,0.0175,0.0173,0.017,0.0165,0.0165,0.0161,0.0155,0.0155,0.0166,0.0168,0.0169,0.0169,0.0153,0,0,0,0,0,0.0222,0.0224,0.0217,0.022,0.0218,0.021,0.0208,0.02,0.0195,0.0191,0.0183,0.0176,0.0173,0.017,0.0166,0.0168,0.0153,0.0167,0.0168,0.0169,0.0169,0.0149,0.0148,0.0156,0.0156,0.0156,0,0,0.0227,0.0224,0.0226,0.0222,0.0218,0.0218,0.0207,0.0204,0.0205,0.0191,0.0189,0.0181,0.0174,0.0174,0.0172,0.0169,0.0159,0.017,0.0171,0.0169,0.0149,0.0148,0.0147,0.0156,0.0156,0.0156,0,0,0.0238,0.0235,0.0238,0.0235,0.0228,0.0225,0.0225,0.0216,0.0211,0.021,0.0199,0.0191,0.0188,0.0181,0.0178,0.0185,0.0166,0.0183,0.0189,0.0171,0.017,0.0169,0.0146,0.0143,0.0183,0.0184,0.0184,0,0.0242,0.0245,0.0239,0.024,0.024,0.0229,0.0232,0.0229,0.0221,0.0219,0.0209,0.0198,0.019,0.019,0.0189,0.0188,0.0172,0.0185,0.0172,0.0171,0.0169,0.0146,0.0142,0.0184,0.0184,0.0184,0.0184,0,0.0251,0.0254,0.0257,0.0255,0.0255,0.0257,0.0252,0.025,0.0242,0.0235,0.0228,0.0215,0.0206,0.0203,0.0198,0.0189,0.0178,0.0176,0.0168,0.0169,0.0145,0.0141,0.0185,0.0185,0.0185,0.0185,0,0,0.0258,0.0262,0.0262,0.0266,0.0263,0.0266,0.0269,0.0268,0.027,0.0255,0.0252,0.0241,0.0225,0.0221,0.0211,0.0195,0.017,0.0182,0.018,0.0159,0.0123,0.0117,0.0112,0.0164,0.0164,0.0163,0.0108,0,0.0265,0.0274,0.0274,0.0286,0.029,0.0286,0.0293,0.0291,0.0282,0.0277,0.0258,0.0251,0.0236,0.0229,0.021,0.0184,0.0161,0.0185,0.0125,0.0123,0.0118,0.0108,0.0162,0.0105,0.0104,0.0103,0.0103,0,0.027,0.0277,0.0288,0.0303,0.0305,0.0312,0.0319,0.0322,0.0312,0.0304,0.0286,0.0269,0.0247,0.0232,0.0179,0.0194,0.0157,0.0133,0.013,0.0117,0.011,0.0104,0.0095,0.0096,0.0096,0.0097,0.0097,0,0.0277,0.0289,0.0301,0.0304,0.0317,0.0323,0.033,0.0328,0.0334,0.0316,0.0314,0.028,0.0266,0.0217,0.0166,0.0168,0.0105,0.0101,0.0059,0.0058,0.0072,0.0074,0.0055,0.0055,0.0055,0.0055,0.0055,0,0.0282,0.0293,0.0305,0.0312,0.0333,0.0334,0.035,0.0351,0.035,0.0361,0.0326,0.0324,0.0261,0.022,0.0167,0.0101,0.0101,0.0055,0.0043,0.008,0.0083,0.0069,0.0071,0.0053,0.0054,0.0054,0.0054,0,0.0285,0.0292,0.031,0.0328,0.0336,0.0349,0.0371,0.0384,0.0377,0.0388,0.0383,0.0351,0.0299,0.0232,0.0154,0.0106,0.0042,0.0016,0.0058,0.005,0.0005,0.0009,-0.0041,-0.0042,-0.0042,-0.0043,-0.0043,0,0.0285,0.0295,0.0323,0.034,0.0349,0.0369,0.039,0.0395,0.0413,0.0409,0.0421,0.0372,0.0342,0.0229,0.0153,0.0041,0.0027,-0.0016,-0.0006,0.0001,-0.0006,-0.0001,0.0004,-0.0044,-0.0044,-0.0044,-0.0044,0,0.0291,0.0303,0.0321,0.0356,0.0382,0.0414,0.0442,0.0457,0.0469,0.0458,0.045,0.0387,0.0327,0.0236,0.0146,0.0069,0.0008,-0.0022,-0.0022,-0.0013,-0.0003,-0.0008,-0.0003,-0.0046,-0.0046,-0.0046,-0.0046,0,0.03,0.0316,0.0346,0.038,0.0415,0.046,0.0468,0.049,0.0503,0.0496,0.0491,0.0419,0.0372,0.025,0.0171,0.0089,0.0067,0.0036,0.0033,0.0035,0.0074,0.0098,0.0071,0,0,0,0,0,0.0312,0.0341,0.0371,0.0418,0.0452,0.0482,0.0511,0.0517,0.0523,0.0522,0.0508,0.045,0.0327,0.0275,0.0193,0.0159,0.0052,0.0058,0.0016,-0.0057,-0.0055,-0.0022,0,0,0,0,0,0,0.0324,0.0357,0.0378,0.0446,0.0487,0.0536,0.0561,0.0563,0.0561,0.0545,0.0485,0.0431,0.0317,0.0384,0.0197,0.017,0.013,-0.0004,-0.0006,-0.0058,-0.0056,-0.0055,-0.002,0,0,0,0,0]}]]